This demonstration page uses our WeatherBlox Daily Observations layout. Learn more.

Left ArrowRight Arrow

30.21309, -93.2044

Hourly Observations for January 1, 2016

Temp ( °F °C ) Dew Point ( °F °C ) Humidity (%) Winds ( mph kmh ) Pressure ( in mb ) Visibility ( mi km ) Precip ( " mm )
12:15 am 00:15 Cloudy with Rain 45 7.2 42 5.6 90 90 N 8 13 30.33 1027 10 16 0.00 0.00
12:35 am 00:35 Cloudy 45 7.3 42 5.5 88 88 N 10 17 30.33 1027 10 16 0.00 0.00
12:55 am 00:55 Cloudy 45 7.4 42 5.4 87 87 N 8 13 30.33 1027 10 16 0.00 0.00
1:15 am 01:15 Cloudy 45 7.4 41 5.2 86 86 N 9 15 30.33 1027 10 16 0.00 0.00
1:35 am 01:35 Cloudy 45 7.4 41 5.2 86 86 N 10 17 30.36 1028 10 16 0.00 0.00
1:55 am 01:55 Cloudy with Rain 45 7.1 40 4.7 85 85 N 12 19 30.36 1028 10 16 0.01 0.25
2:15 am 02:15 Cloudy with Light Rain 44 6.5 41 5.1 91 91 N 9 15 30.36 1028 10 16 0.03 0.76
2:35 am 02:35 Cloudy with Light Rain 44 6.5 41 5.2 92 92 N 12 19 30.36 1028 10 16 0.03 0.76
2:55 am 02:55 Cloudy 44 6.7 42 5.3 91 91 N 9 15 30.36 1028 10 16 0.03 0.76
3:15 am 03:15 Cloudy 44 6.6 41 5.1 90 90 N 9 15 30.36 1028 10 16 0.00 0.00
3:35 am 03:35 Cloudy 44 6.6 41 4.9 89 89 NNE 10 17 30.36 1028 10 16 0.00 0.00
3:55 am 03:55 Mostly Cloudy with Light Rain 44 6.5 40 4.7 88 88 NNE 14 22 30.33 1027 10 16 0.00 0.00
4:15 am 04:15 Cloudy 44 6.6 40 4.2 85 85 N 16 26 30.33 1027 10 16 0.00 0.00
6:00 am 06:00 Cloudy 43 6 37 3 81 81 NNE 12 19 30.36 1028 10 16 0.00 0.00
6:50 am 06:50 Cloudy 43 6 37 3 81 81 NNE 12 19 30.39 1029 10 16 0.00 0.00
7:50 am 07:50 Mostly Cloudy 43 6 37 3 81 81 NNE 12 19 30.39 1029 10 16 0.00 0.00
8:55 am 08:55 Mostly Cloudy 45 7 36 2 71 71 NNE 12 19 30.45 1031 10 16 0.00 0.00
9:55 am 09:55 Mostly Cloudy 45 7 36 2 71 71 NNE 12 19 30.45 1031 10 16 0.00 0.00
10:50 am 10:50 Partly Cloudy 45 7 34 1 66 66 N 14 22 30.42 1030 10 16 0.00 0.00
11:45 am 11:45 Mostly Cloudy 45 7 34 1 66 66 N 14 22 30.42 1030 10 16 0.00 0.00
12:55 pm 12:55 Mostly Cloudy 45 7 34 1 66 66 N 14 22 30.42 1030 10 16 0.00 0.00
1:55 pm 13:55 Mostly Cloudy 46 8 36 2 66 66 N 13 20 30.36 1028 10 16 0.00 0.00
2:50 pm 14:50 Mostly Cloudy 45 7 36 2 71 71 N 9 15 30.39 1029 10 16 0.00 0.00
3:50 pm 15:50 Mostly Cloudy 46 8 37 3 71 71 N 5 7 30.36 1028 10 16 0.00 0.00
4:50 pm 16:50 Cloudy 46 8 36 2 66 66 N 6 9 30.36 1028 10 16 0.00 0.00
5:50 pm 17:50 Cloudy 54 12 37 3 54 54 NNE 12 19 30.24 1024 10 16 0.00 0.00
6:50 pm 18:50 Mostly Cloudy 45 7 37 3 76 76 N 8 13 30.45 1031 10 16 0.00 0.00
7:50 pm 19:50 Mostly Cloudy 45 7 36 2 71 71 N 7 11 30.45 1031 10 16 0.00 0.00
8:50 pm 20:50 Mostly Cloudy 45 7 36 2 71 71 N 7 11 30.45 1031 10 16 0.00 0.00
9:15 pm 21:15 Clear 45 7.2 36 2.1 70 70 N 8 13 30.45 1031 10 16 0.00 0.00
9:35 pm 21:35 Clear 45 7.1 36 2 70 70 N 9 15 30.45 1031 10 16 0.00 0.00
9:50 pm 21:50 Mostly Cloudy 45 7 36 2 71 71 N 8 13 30.45 1031 10 16 0.00 0.00
9:55 pm 21:55 Clear 45 7.1 35 1.8 69 69 N 7 11 30.45 1031 10 16 0.00 0.00
10:15 pm 22:15 Clear 45 7 35 1.6 69 69 N 8 13 30.45 1031 10 16 0.00 0.00
10:35 pm 22:35 Clear 45 7 35 1.6 69 69 N 7 11 30.45 1031 10 16 0.00 0.00
10:55 pm 22:55 Clear 44 6.9 35 1.6 69 69 N 6 9 30.45 1031 10 16 0.00 0.00
11:15 pm 23:15 Clear 44 6.7 35 1.8 71 71 N 6 9 30.45 1031 10 16 0.00 0.00
11:35 pm 23:35 Clear 44 6.6 35 1.5 70 70 N 5 7 30.45 1031 10 16 0.00 0.00
11:55 pm 23:55 Clear 44 6.6 34 1.3 69 69 N 8 13 30.45 1031 10 16 0.00 0.00

Powered by AerisWeather